Terminal Aerodrome Forecast
Issued by NWS Tuscon, AZ

Home | Current Version | Previous Version | Text Only | Print | Product List | Glossary On
Versions: 1 2 3 4 5 6 7 8 9 10 11 12 13
725
FTUS45 KTWC 061139
TAFDUG
TAF
KDUG 061139Z 0612/0712 36010KT P6SM SKC
     FM061700 10009KT P6SM SKC=

USA.gov is the U.S. government's official web portal to all federal, state and local government web resources and services.